UAL1752 KLAX-KSFO

Flight info

Callsign UAL1752
Flight time 0h 54m
Altitude 34000
Route SUMMR2 STOKD SERFR SERFR4
Aircraft A321/M-SDE3FGHIRWY/LB1

Departure

Time 2026-05-06 19:44
Airport Los Angeles International Airport (KLAX)

Arrival

Time 2026-05-06 20:38
Airport San Francisco International Airport (KSFO)
Time Latitude Longitude Altitude Speed Heading
2026-05-06 19:11 33.94133 -118.40389 93 ft 0 kts 268°
2026-05-06 19:29 33.94133 -118.40386 93 ft 2 kts 268°
2026-05-06 19:29 33.94133 -118.40356 93 ft 2 kts 268°
2026-05-06 19:29 33.94136 -118.40336 92 ft 4 kts 208°
2026-05-06 19:30 33.94152 -118.40331 93 ft 0 kts 173°
2026-05-06 19:30 33.94126 -118.40328 95 ft 4 kts 173°
2026-05-06 19:30 33.94100 -118.40324 93 ft 4 kts 173°
2026-05-06 19:30 33.94073 -118.40320 93 ft 4 kts 173°
2026-05-06 19:31 33.94046 -118.40316 94 ft 4 kts 173°
2026-05-06 19:31 33.94029 -118.40314 93 ft 0 kts 173°
2026-05-06 19:37 33.94021 -118.40312 95 ft 2 kts 173°
2026-05-06 19:37 33.94009 -118.40311 93 ft 3 kts 173°
2026-05-06 19:38 33.93967 -118.40304 96 ft 6 kts 173°
2026-05-06 19:38 33.93922 -118.40298 94 ft 7 kts 171°
2026-05-06 19:38 33.93870 -118.40286 95 ft 8 kts 167°
2026-05-06 19:38 33.93853 -118.40240 98 ft 7 kts 82°
2026-05-06 19:39 33.93861 -118.40174 98 ft 9 kts 82°
2026-05-06 19:39 33.93870 -118.40094 97 ft 11 kts 82°
2026-05-06 19:39 33.93880 -118.39998 96 ft 12 kts 83°
2026-05-06 19:39 33.93890 -118.39885 97 ft 15 kts 84°
2026-05-06 19:40 33.93903 -118.39751 96 ft 17 kts 82°
2026-05-06 19:40 33.93920 -118.39596 95 ft 20 kts 83°
2026-05-06 19:40 33.93938 -118.39423 95 ft 22 kts 83°
2026-05-06 19:40 33.93958 -118.39226 93 ft 25 kts 83°
2026-05-06 19:41 33.93975 -118.39055 94 ft 19 kts 82°
2026-05-06 19:41 33.93992 -118.38889 94 ft 21 kts 83°
2026-05-06 19:41 33.94011 -118.38704 95 ft 23 kts 83°
2026-05-06 19:41 33.94025 -118.38567 96 ft 14 kts 82°
2026-05-06 19:42 33.94039 -118.38445 98 ft 16 kts 82°
2026-05-06 19:42 33.94052 -118.38306 97 ft 18 kts 83°
2026-05-06 19:42 33.94068 -118.38145 94 ft 20 kts 83°
2026-05-06 19:42 33.94080 -118.38037 93 ft 11 kts 85°
2026-05-06 19:43 33.94021 -118.37998 94 ft 12 kts 178°
2026-05-06 19:43 33.93979 -118.38033 93 ft 0 kts 266°
2026-05-06 19:43 33.93979 -118.38050 93 ft 13 kts 269°
2026-05-06 19:43 33.93939 -118.38451 102 ft 81 kts 262°
2026-05-06 19:44 33.93849 -118.39350 95 ft 134 kts 263°
2026-05-06 19:44 33.93722 -118.40652 163 ft 168 kts 263°
2026-05-06 19:44 33.93600 -118.41917 970 ft 143 kts 263°
2026-05-06 19:44 33.93484 -118.43076 1506 ft 135 kts 262°
2026-05-06 19:45 33.93375 -118.44174 1885 ft 137 kts 262°
2026-05-06 19:45 33.93254 -118.45380 2114 ft 145 kts 263°
2026-05-06 19:45 33.93137 -118.46530 2515 ft 140 kts 263°
2026-05-06 19:45 33.93019 -118.47747 2758 ft 146 kts 264°
2026-05-06 19:46 33.92916 -118.49027 2910 ft 167 kts 264°
2026-05-06 19:46 33.92803 -118.50526 3047 ft 192 kts 264°
2026-05-06 19:46 33.92663 -118.52226 3282 ft 215 kts 264°
2026-05-06 19:46 33.92508 -118.54115 3639 ft 239 kts 264°
2026-05-06 19:47 33.92333 -118.56189 4067 ft 259 kts 264°
2026-05-06 19:47 33.92147 -118.58389 4826 ft 267 kts 264°
2026-05-06 19:47 33.91959 -118.60632 5670 ft 271 kts 264°
2026-05-06 19:47 33.91783 -118.62879 6504 ft 275 kts 268°
2026-05-06 19:48 33.91771 -118.65202 7328 ft 280 kts 270°
2026-05-06 19:48 33.91766 -118.67593 8151 ft 284 kts 270°
2026-05-06 19:48 33.91759 -118.69952 8924 ft 288 kts 270°
2026-05-06 19:48 33.91750 -118.72378 9677 ft 293 kts 270°
2026-05-06 19:49 33.91741 -118.74849 10350 ft 301 kts 270°
2026-05-06 19:49 33.91725 -118.77461 10576 ft 324 kts 270°
2026-05-06 19:49 33.91708 -118.80250 11000 ft 336 kts 270°
2026-05-06 19:49 33.91694 -118.83089 11648 ft 342 kts 271°
2026-05-06 19:50 33.91720 -118.85971 12318 ft 345 kts 272°
2026-05-06 19:50 33.91796 -118.88871 12963 ft 348 kts 274°
2026-05-06 19:50 33.91896 -118.91802 13591 ft 353 kts 274°
2026-05-06 19:50 33.92002 -118.94768 14207 ft 356 kts 274°
2026-05-06 19:51 33.92110 -118.97762 14818 ft 360 kts 275°
2026-05-06 19:51 33.92477 -119.00755 15402 ft 361 kts 287°
2026-05-06 19:51 33.93324 -119.03601 15984 ft 362 kts 298°
2026-05-06 19:51 33.94592 -119.06228 16551 ft 364 kts 304°
2026-05-06 19:52 33.95943 -119.08819 17119 ft 367 kts 304°
2026-05-06 19:52 33.97302 -119.11436 17659 ft 370 kts 304°
2026-05-06 19:52 33.98668 -119.14079 18221 ft 373 kts 304°
2026-05-06 19:52 34.00056 -119.16700 18774 ft 376 kts 308°
2026-05-06 19:53 34.01762 -119.19087 19330 ft 376 kts 319°
2026-05-06 19:53 34.03806 -119.21058 19902 ft 377 kts 327°
2026-05-06 19:53 34.05690 -119.22673 20381 ft 379 kts 327°
2026-05-06 19:54 34.06837 -119.23656 20681 ft 381 kts 327°
2026-05-06 19:54 34.09001 -119.25513 21203 ft 384 kts 327°
2026-05-06 19:54 34.11184 -119.27387 21715 ft 386 kts 327°
2026-05-06 19:54 34.12644 -119.28642 22044 ft 388 kts 327°
2026-05-06 19:55 34.15580 -119.31170 22700 ft 392 kts 327°
2026-05-06 19:55 34.17081 -119.32464 23033 ft 394 kts 327°
2026-05-06 19:55 34.20051 -119.35021 23654 ft 397 kts 327°
2026-05-06 19:55 34.22311 -119.36971 24107 ft 399 kts 327°
2026-05-06 19:56 34.23814 -119.38265 24380 ft 402 kts 327°
2026-05-06 19:56 34.26101 -119.40233 24816 ft 404 kts 327°
2026-05-06 19:56 34.28391 -119.42209 25226 ft 407 kts 327°
2026-05-06 19:56 34.30698 -119.44209 25625 ft 409 kts 327°
2026-05-06 19:57 34.33017 -119.46218 26025 ft 412 kts 327°
2026-05-06 19:57 34.35357 -119.48249 26407 ft 414 kts 327°
2026-05-06 19:57 34.37705 -119.50285 26791 ft 416 kts 327°
2026-05-06 19:57 34.40065 -119.52334 27154 ft 419 kts 326°
2026-05-06 19:58 34.42280 -119.54655 27497 ft 424 kts 317°
2026-05-06 19:58 34.44358 -119.57213 27842 ft 427 kts 317°
2026-05-06 19:58 34.46443 -119.59782 28179 ft 429 kts 317°
2026-05-06 19:58 34.48543 -119.62368 28488 ft 431 kts 317°
2026-05-06 19:59 34.50627 -119.64935 28832 ft 433 kts 317°
2026-05-06 19:59 34.52748 -119.67544 29159 ft 435 kts 317°
2026-05-06 19:59 34.54877 -119.70164 29490 ft 437 kts 317°
2026-05-06 19:59 34.57023 -119.72807 29812 ft 439 kts 317°
2026-05-06 20:00 34.59168 -119.75451 30113 ft 441 kts 317°
2026-05-06 20:00 34.61327 -119.78120 30407 ft 445 kts 317°
2026-05-06 20:00 34.63493 -119.80804 30743 ft 446 kts 317°
2026-05-06 20:00 34.65673 -119.83509 31023 ft 448 kts 317°
2026-05-06 20:01 34.67850 -119.86206 31440 ft 447 kts 317°
2026-05-06 20:01 34.70016 -119.88894 31841 ft 444 kts 317°
2026-05-06 20:01 34.72149 -119.91540 32222 ft 445 kts 317°
2026-05-06 20:01 34.74309 -119.94223 32618 ft 443 kts 317°
2026-05-06 20:02 34.76465 -119.96903 33006 ft 442 kts 317°
2026-05-06 20:02 34.78616 -119.99581 33378 ft 441 kts 317°
2026-05-06 20:02 34.80763 -120.02249 33749 ft 441 kts 317°
2026-05-06 20:02 34.82910 -120.04920 34053 ft 441 kts 317°
2026-05-06 20:03 34.87176 -120.10236 34129 ft 435 kts 317°
2026-05-06 20:03 34.91390 -120.15492 34135 ft 434 kts 317°
2026-05-06 20:04 34.95605 -120.20746 34137 ft 433 kts 317°
2026-05-06 20:04 34.99769 -120.25962 34143 ft 432 kts 317°
2026-05-06 20:05 35.03972 -120.31240 34146 ft 432 kts 317°
2026-05-06 20:05 35.08160 -120.36515 34144 ft 432 kts 317°
2026-05-06 20:06 35.12457 -120.41623 34137 ft 429 kts 320°
2026-05-06 20:06 35.16901 -120.46492 34131 ft 430 kts 321°
2026-05-06 20:07 35.21358 -120.51365 34134 ft 431 kts 321°
2026-05-06 20:07 35.25786 -120.56313 34139 ft 431 kts 320°
2026-05-06 20:08 35.30184 -120.61286 34134 ft 430 kts 320°
2026-05-06 20:08 35.34589 -120.66272 34135 ft 431 kts 320°
2026-05-06 20:09 35.38971 -120.71218 34136 ft 431 kts 320°
2026-05-06 20:09 35.43379 -120.76191 34134 ft 431 kts 320°
2026-05-06 20:10 35.47795 -120.81178 34140 ft 431 kts 321°
2026-05-06 20:10 35.52508 -120.85668 34144 ft 428 kts 326°
2026-05-06 20:11 35.57260 -120.90059 34151 ft 428 kts 326°
2026-05-06 20:11 35.62010 -120.94469 34152 ft 428 kts 326°
2026-05-06 20:12 35.66753 -120.98896 34152 ft 428 kts 325°
2026-05-06 20:12 35.71469 -121.03302 34154 ft 428 kts 326°
2026-05-06 20:13 35.76213 -121.07733 34157 ft 427 kts 326°
2026-05-06 20:13 35.80945 -121.12149 34156 ft 428 kts 325°
2026-05-06 20:14 35.85692 -121.16588 34158 ft 429 kts 325°
2026-05-06 20:14 35.90432 -121.21033 33968 ft 424 kts 325°
2026-05-06 20:15 35.92752 -121.23215 33713 ft 417 kts 325°
2026-05-06 20:15 35.95048 -121.25374 33463 ft 413 kts 325°
2026-05-06 20:15 35.97334 -121.27523 33210 ft 411 kts 325°
2026-05-06 20:15 35.99596 -121.29650 32898 ft 406 kts 325°
2026-05-06 20:16 36.01810 -121.31732 32446 ft 404 kts 325°
2026-05-06 20:16 36.04045 -121.33837 31999 ft 403 kts 325°
2026-05-06 20:16 36.06272 -121.35935 31546 ft 401 kts 325°
2026-05-06 20:16 36.08582 -121.37844 31104 ft 399 kts 330°
2026-05-06 20:17 36.10928 -121.39675 30674 ft 397 kts 330°
2026-05-06 20:17 36.13267 -121.41491 30236 ft 395 kts 330°
2026-05-06 20:17 36.15587 -121.43291 29817 ft 393 kts 330°
2026-05-06 20:17 36.17892 -121.45085 29406 ft 390 kts 330°
2026-05-06 20:18 36.20181 -121.46868 28994 ft 389 kts 329°
2026-05-06 20:18 36.22477 -121.48666 28598 ft 387 kts 329°
2026-05-06 20:18 36.24744 -121.50443 28202 ft 386 kts 329°
2026-05-06 20:18 36.27013 -121.52220 27812 ft 384 kts 329°
2026-05-06 20:19 36.29243 -121.53963 27393 ft 383 kts 329°
2026-05-06 20:19 36.31497 -121.55729 26981 ft 383 kts 329°
2026-05-06 20:19 36.33749 -121.57497 26551 ft 382 kts 329°
2026-05-06 20:19 36.35995 -121.59260 26133 ft 382 kts 329°
2026-05-06 20:20 36.38246 -121.61033 25687 ft 381 kts 329°
2026-05-06 20:20 36.40480 -121.62790 25260 ft 380 kts 329°
2026-05-06 20:20 36.42708 -121.64543 24816 ft 379 kts 329°
2026-05-06 20:20 36.44927 -121.66287 24359 ft 379 kts 329°
2026-05-06 20:21 36.47160 -121.68048 23900 ft 379 kts 329°
2026-05-06 20:21 36.49384 -121.69804 23437 ft 378 kts 329°
2026-05-06 20:21 36.51606 -121.71555 22976 ft 378 kts 329°
2026-05-06 20:21 36.53813 -121.73297 22516 ft 376 kts 329°
2026-05-06 20:22 36.55992 -121.75023 22056 ft 375 kts 329°
2026-05-06 20:22 36.58189 -121.76764 21594 ft 373 kts 329°
2026-05-06 20:22 36.60375 -121.78493 21138 ft 371 kts 329°
2026-05-06 20:22 36.62546 -121.80210 20683 ft 369 kts 329°
2026-05-06 20:23 36.64711 -121.81922 20227 ft 366 kts 329°
2026-05-06 20:23 36.66853 -121.83618 19754 ft 364 kts 329°
2026-05-06 20:23 36.68980 -121.85304 19304 ft 361 kts 329°
2026-05-06 20:23 36.71091 -121.86982 18856 ft 358 kts 329°
2026-05-06 20:24 36.73203 -121.88603 18407 ft 355 kts 334°
2026-05-06 20:24 36.75469 -121.89762 17964 ft 350 kts 346°
2026-05-06 20:24 36.77829 -121.90451 17420 ft 349 kts 349°
2026-05-06 20:24 36.80207 -121.91106 16899 ft 349 kts 349°
2026-05-06 20:25 36.82566 -121.91765 16466 ft 346 kts 348°
2026-05-06 20:25 36.84900 -121.92420 16029 ft 343 kts 348°
2026-05-06 20:25 36.87218 -121.93069 15601 ft 340 kts 348°
2026-05-06 20:25 36.89517 -121.93712 15170 ft 337 kts 348°
2026-05-06 20:26 36.91798 -121.94352 14757 ft 335 kts 348°
2026-05-06 20:26 36.94064 -121.94981 14338 ft 332 kts 348°
2026-05-06 20:26 36.96270 -121.95645 13934 ft 330 kts 346°
2026-05-06 20:26 36.98467 -121.96441 13533 ft 328 kts 343°
2026-05-06 20:27 37.00629 -121.97297 13115 ft 325 kts 343°
2026-05-06 20:27 37.02775 -121.98176 12714 ft 322 kts 342°
2026-05-06 20:27 37.04900 -121.99047 12311 ft 320 kts 342°
2026-05-06 20:27 37.07019 -121.99904 11909 ft 317 kts 343°
2026-05-06 20:28 37.09112 -122.00737 11509 ft 315 kts 343°
2026-05-06 20:28 37.11193 -122.01556 11113 ft 312 kts 343°
2026-05-06 20:28 37.13253 -122.02363 10715 ft 311 kts 343°
2026-05-06 20:28 37.15300 -122.03163 10333 ft 309 kts 343°
2026-05-06 20:29 37.17350 -122.03961 9940 ft 308 kts 343°
2026-05-06 20:29 37.19362 -122.04746 9778 ft 298 kts 343°
2026-05-06 20:29 37.21309 -122.05509 9651 ft 288 kts 343°
2026-05-06 20:29 37.23200 -122.06255 9453 ft 283 kts 343°
2026-05-06 20:30 37.25071 -122.06992 9136 ft 280 kts 343°
2026-05-06 20:30 37.28753 -122.08435 7970 ft 276 kts 343°
2026-05-06 20:30 37.30582 -122.09154 7445 ft 273 kts 343°
2026-05-06 20:31 37.32381 -122.09861 7032 ft 270 kts 343°
2026-05-06 20:31 37.34175 -122.10571 6667 ft 271 kts 343°
2026-05-06 20:31 37.35965 -122.11279 6373 ft 269 kts 343°
2026-05-06 20:31 37.37739 -122.11974 6058 ft 268 kts 343°
2026-05-06 20:32 37.39523 -122.12613 5768 ft 266 kts 345°
2026-05-06 20:32 37.41292 -122.13205 5271 ft 262 kts 346°
2026-05-06 20:32 37.43048 -122.13783 4677 ft 260 kts 345°
2026-05-06 20:32 37.44797 -122.14356 4090 ft 259 kts 345°
2026-05-06 20:33 37.46518 -122.14925 3664 ft 258 kts 345°
2026-05-06 20:33 37.48230 -122.15492 3477 ft 247 kts 345°
2026-05-06 20:33 37.49819 -122.16020 3364 ft 225 kts 345°
2026-05-06 20:33 37.51303 -122.16517 3267 ft 216 kts 345°
2026-05-06 20:34 37.52672 -122.17060 3192 ft 202 kts 333°
2026-05-06 20:34 37.53784 -122.18079 3106 ft 194 kts 313°
2026-05-06 20:34 37.54512 -122.19460 2865 ft 184 kts 298°
2026-05-06 20:34 37.55094 -122.20845 2639 ft 173 kts 298°
2026-05-06 20:35 37.55636 -122.22134 2417 ft 161 kts 298°
2026-05-06 20:35 37.56142 -122.23332 2225 ft 151 kts 298°
2026-05-06 20:35 37.56621 -122.24470 2032 ft 145 kts 298°
2026-05-06 20:35 37.57094 -122.25589 1834 ft 143 kts 298°
2026-05-06 20:36 37.57546 -122.26689 1628 ft 143 kts 296°
2026-05-06 20:36 37.58016 -122.27787 1451 ft 141 kts 299°
2026-05-06 20:36 37.58482 -122.28901 1346 ft 143 kts 297°
2026-05-06 20:36 37.58937 -122.30008 999 ft 140 kts 298°
2026-05-06 20:37 37.59405 -122.31068 950 ft 139 kts 298°
2026-05-06 20:37 37.59851 -122.32132 762 ft 136 kts 298°
2026-05-06 20:37 37.60291 -122.33188 554 ft 137 kts 297°
2026-05-06 20:37 37.60742 -122.34264 334 ft 140 kts 298°
2026-05-06 20:38 37.61195 -122.35339 158 ft 138 kts 298°
2026-05-06 20:38 37.61638 -122.36391 27 ft 131 kts 297°
2026-05-06 20:38 37.61990 -122.37241 22 ft 84 kts 299°
2026-05-06 20:38 37.62187 -122.37707 24 ft 40 kts 297°
2026-05-06 20:39 37.62235 -122.37952 22 ft 21 kts 260°
2026-05-06 20:39 37.62228 -122.38101 22 ft 15 kts 268°
2026-05-06 20:39 37.62200 -122.38193 22 ft 12 kts 216°
2026-05-06 20:39 37.62114 -122.38238 22 ft 15 kts 180°
2026-05-06 20:40 37.62027 -122.38297 23 ft 12 kts 233°
2026-05-06 20:40 37.62050 -122.38402 23 ft 15 kts 299°
2026-05-06 20:40 37.62080 -122.38509 22 ft 11 kts 252°
2026-05-06 20:40 37.62011 -122.38564 22 ft 9 kts 207°
2026-05-06 20:41 37.62005 -122.38567 22 ft 1 kts 207°